| time (UTC) | temp F | wind direction | speed MPH | gust MPH | rain 1hr in | rain 24hr in | rain mn in | humidity % | barometer mb |
| 20260503020504 | 59 | 64 | 8.0 | 13.0 | 0.00 | 0.00 | 0.00 | 72 | 1017.3 |
| 20260503020217 | 58 | 54 | 6.0 | 10.0 | 0.00 | 0.00 | 0.00 | 72 | 1017.3 |
| 20260503015504 | 58 | 53 | 6.0 | 12.0 | 0.00 | 0.00 | 0.00 | 72 | 1017.3 |
| 20260503015004 | 59 | 65 | 8.0 | 14.0 | 0.00 | 0.00 | 0.00 | 72 | 1017.3 |
| 20260503014716 | 59 | 72 | 9.0 | 14.0 | 0.00 | 0.00 | 0.00 | 72 | 1017.3 |
| 20260503014004 | 60 | 68 | 10.0 | 13.0 | 0.00 | 0.00 | 0.00 | 73 | 1017.3 |
| 20260503013504 | 60 | 79 | 9.0 | 12.0 | 0.00 | 0.00 | 0.00 | 72 | 1017.3 |
| 20260503013004 | 60 | 90 | 10.0 | 16.0 | 0.00 | 0.00 | 0.00 | 73 | 1017.3 |
| 20260503012504 | 61 | 93 | 12.0 | 18.0 | 0.00 | 0.00 | 0.00 | 73 | 1017.3 |
| 20260503012004 | 61 | 90 | 13.0 | 19.0 | 0.00 | 0.00 | 0.00 | 73 | 1017.3 |
| 20260503011504 | 61 | 87 | 15.0 | 24.0 | 0.00 | 0.00 | 0.00 | 73 | 1017.3 |
| 20260503011004 | 61 | 93 | 16.0 | 24.0 | 0.00 | 0.00 | 0.00 | 73 | 1017.3 |
| 20260503010715 | 61 | 92 | 16.0 | 24.0 | 0.00 | 0.00 | 0.00 | 73 | 1017.3 |
| 20260503010218 | 61 | 86 | 17.0 | 20.0 | 0.00 | 0.00 | 0.00 | 72 | 1017.3 |
| 20260503005504 | 61 | 84 | 15.0 | 21.0 | 0.00 | 0.00 | 0.00 | 72 | 1017.3 |
| 20260503005214 | 61 | 86 | 14.0 | 21.0 | 0.00 | 0.00 | 0.00 | 72 | 1017.3 |
| 20260503004717 | 61 | 85 | 12.0 | 21.0 | 0.00 | 0.00 | 0.00 | 72 | 1017.3 |
| 20260503004004 | 60 | 73 | 10.0 | 14.0 | 0.00 | 0.00 | 0.00 | 71 | 1017.3 |
| 20260503003504 | 60 | 69 | 11.0 | 14.0 | 0.00 | 0.00 | 0.00 | 71 | 1017.3 |
| 20260503003004 | 60 | 67 | 11.0 | 15.0 | 0.00 | 0.00 | 0.00 | 70 | 1017.3 |
| 20260503002504 | 60 | 77 | 10.0 | 15.0 | 0.00 | 0.00 | 0.00 | 70 | 1017.3 |
| 20260503002003 | 59 | 77 | 10.0 | 15.0 | 0.00 | 0.00 | 0.00 | 70 | 1017.3 |
| 20260503001504 | 59 | 78 | 13.0 | 16.0 | 0.00 | 0.00 | 0.00 | 70 | 1017.3 |
| 20260503001004 | 59 | 74 | 12.0 | 16.0 | 0.00 | 0.00 | 0.00 | 70 | 1017.3 |
| 20260503000503 | 58 | 65 | 10.0 | 13.0 | 0.00 | 0.00 | 0.00 | 70 | 1017.3 |
| 20260503000004 | 57 | 54 | 8.0 | 12.0 | 0.00 | 0.00 | 0.00 | 68 | 1017.3 |
| 20260502235503 | 56 | 47 | 7.0 | 9.0 | 0.00 | 0.00 | 0.00 | 67 | 1018.3 |
| 20260502235003 | 55 | 48 | 7.0 | 9.0 | 0.00 | 0.00 | 0.00 | 66 | 1018.3 |
| 20260502234717 | 55 | 46 | 7.0 | 9.0 | 0.00 | 0.00 | 0.00 | 66 | 1018.3 |
| 20260502234216 | 55 | 44 | 7.0 | 9.0 | 0.00 | 0.00 | 0.00 | 64 | 1018.3 |
| 20260502233503 | 54 | 39 | 6.0 | 8.0 | 0.00 | 0.00 | 0.00 | 64 | 1018.3 |
| 20260502233003 | 54 | 43 | 6.0 | 9.0 | 0.00 | 0.00 | 0.00 | 63 | 1018.3 |
| 20260502232503 | 54 | 46 | 7.0 | 9.0 | 0.00 | 0.00 | 0.00 | 63 | 1018.3 |
| 20260502232003 | 54 | 47 | 7.0 | 9.0 | 0.00 | 0.00 | 0.00 | 63 | 1018.3 |
| 20260502231504 | 54 | 47 | 7.0 | 8.0 | 0.00 | 0.00 | 0.00 | 63 | 1018.3 |
| 20260502231003 | 54 | 46 | 7.0 | 8.0 | 0.00 | 0.00 | 0.00 | 63 | 1018.3 |
| 20260502230504 | 54 | 48 | 7.0 | 9.0 | 0.00 | 0.00 | 0.00 | 63 | 1018.3 |
| 20260502230004 | 54 | 46 | 7.0 | 9.0 | 0.00 | 0.00 | 0.00 | 63 | 1018.3 |
| 20260502225503 | 54 | 46 | 7.0 | 9.0 | 0.00 | 0.00 | 0.00 | 63 | 1018.3 |
| 20260502225004 | 54 | 48 | 6.0 | 8.0 | 0.00 | 0.00 | 0.00 | 64 | 1018.3 |
| 20260502224503 | 54 | 48 | 5.0 | 8.0 | 0.00 | 0.00 | 0.00 | 64 | 1018.3 |
| 20260502224003 | 54 | 40 | 5.0 | 8.0 | 0.00 | 0.00 | 0.00 | 64 | 1018.3 |
| 20260502223503 | 54 | 36 | 6.0 | 8.0 | 0.00 | 0.00 | 0.00 | 64 | 1018.3 |
| 20260502223003 | 54 | 40 | 6.0 | 9.0 | 0.00 | 0.00 | 0.00 | 64 | 1018.3 |
| 20260502222503 | 54 | 43 | 7.0 | 9.0 | 0.00 | 0.00 | 0.00 | 64 | 1018.3 |
| 20260502222003 | 54 | 45 | 7.0 | 9.0 | 0.00 | 0.00 | 0.00 | 64 | 1018.3 |
| 20260502221503 | 54 | 45 | 7.0 | 9.0 | 0.00 | 0.00 | 0.00 | 64 | 1018.3 |
| 20260502221004 | 54 | 40 | 7.0 | 9.0 | 0.00 | 0.00 | 0.00 | 63 | 1018.3 |
| 20260502220503 | 55 | 37 | 6.0 | 8.0 | 0.00 | 0.00 | 0.00 | 63 | 1018.3 |
| 20260502220004 | 55 | 40 | 5.0 | 8.0 | 0.00 | 0.00 | 0.00 | 63 | 1018.3 |
| 20260502215504 | 55 | 43 | 5.0 | 5.0 | 0.00 | 0.00 | 0.00 | 62 | 1018.3 |
| 20260502215005 | 56 | 50 | 4.0 | 5.0 | 0.00 | 0.00 | 0.00 | 62 | 1018.3 |
| 20260502214504 | 56 | 47 | 5.0 | 8.0 | 0.00 | 0.00 | 0.00 | 62 | 1018.3 |
| 20260502214006 | 56 | 41 | 5.0 | 8.0 | 0.00 | 0.00 | 0.00 | 62 | 1018.3 |
| 20260502213504 | 56 | 35 | 4.0 | 6.0 | 0.00 | 0.00 | 0.00 | 62 | 1018.3 |
| 20260502213004 | 56 | 30 | 4.0 | 6.0 | 0.00 | 0.00 | 0.00 | 62 | 1018.3 |
| 20260502212715 | 56 | 34 | 3.0 | 6.0 | 0.00 | 0.00 | 0.00 | 62 | 1018.3 |
| 20260502212004 | 56 | 20 | 3.0 | 5.0 | 0.00 | 0.00 | 0.00 | 62 | 1018.3 |
| 20260502211504 | 56 | 23 | 4.0 | 5.0 | 0.00 | 0.00 | 0.00 | 62 | 1018.3 |
| 20260502211004 | 56 | 28 | 4.0 | 6.0 | 0.00 | 0.00 | 0.00 | 62 | 1018.3 |
| 20260502210504 | 56 | 20 | 4.0 | 6.0 | 0.00 | 0.00 | 0.00 | 62 | 1018.3 |
| 20260502210004 | 56 | 24 | 4.0 | 6.0 | 0.00 | 0.00 | 0.00 | 62 | 1018.3 |
| 20260502205713 | 56 | 24 | 4.0 | 5.0 | 0.00 | 0.00 | 0.00 | 62 | 1018.3 |
| 20260502205004 | 56 | 11 | 5.0 | 7.0 | 0.00 | 0.00 | 0.00 | 62 | 1018.3 |
| 20260502204504 | 56 | 3 | 6.0 | 9.0 | 0.00 | 0.00 | 0.00 | 62 | 1018.3 |
| 20260502204004 | 56 | 6 | 6.0 | 9.0 | 0.00 | 0.00 | 0.00 | 62 | 1017.3 |
| 20260502203504 | 56 | 17 | 5.0 | 8.0 | 0.00 | 0.00 | 0.00 | 62 | 1017.3 |
| 20260502203004 | 56 | 20 | 5.0 | 7.0 | 0.00 | 0.00 | 0.00 | 63 | 1017.3 |
| 20260502202505 | 56 | 16 | 6.0 | 10.0 | 0.00 | 0.00 | 0.00 | 64 | 1017.3 |
| 20260502202004 | 56 | 7 | 6.0 | 10.0 | 0.00 | 0.00 | 0.00 | 65 | 1017.3 |
| 20260502201505 | 56 | 348 | 5.0 | 8.0 | 0.00 | 0.00 | 0.00 | 65 | 1017.3 |
| 20260502201004 | 57 | 346 | 4.0 | 7.0 | 0.00 | 0.00 | 0.00 | 64 | 1017.3 |
| 20260502200504 | 57 | 352 | 4.0 | 7.0 | 0.00 | 0.00 | 0.00 | 64 | 1017.3 |
| 20260502200004 | 58 | 358 | 5.0 | 8.0 | 0.00 | 0.00 | 0.00 | 64 | 1017.3 |
| 20260502195503 | 58 | 360 | 5.0 | 8.0 | 0.00 | 0.00 | 0.00 | 64 | 1017.3 |
| 20260502195003 | 58 | 2 | 5.0 | 8.0 | 0.00 | 0.00 | 0.00 | 64 | 1017.3 |
| 20260502194715 | 58 | 7 | 5.0 | 6.0 | 0.00 | 0.00 | 0.00 | 63 | 1017.3 |
| 20260502194218 | 59 | 20 | 6.0 | 8.0 | 0.00 | 0.00 | 0.00 | 63 | 1017.3 |
| 20260502193504 | 59 | 28 | 5.0 | 8.0 | 0.00 | 0.00 | 0.00 | 62 | 1017.3 |
| 20260502193003 | 59 | 20 | 6.0 | 8.0 | 0.00 | 0.00 | 0.00 | 62 | 1017.3 |
| 20260502192503 | 59 | 356 | 7.0 | 10.0 | 0.00 | 0.00 | 0.00 | 62 | 1017.3 |
| 20260502192003 | 59 | 357 | 8.0 | 10.0 | 0.00 | 0.00 | 0.00 | 62 | 1017.3 |
| 20260502191504 | 60 | 10 | 7.0 | 10.0 | 0.00 | 0.00 | 0.00 | 61 | 1017.3 |
| 20260502191003 | 60 | 23 | 7.0 | 9.0 | 0.00 | 0.00 | 0.00 | 61 | 1017.3 |
| 20260502190503 | 60 | 19 | 7.0 | 8.0 | 0.00 | 0.00 | 0.00 | 61 | 1017.3 |
| 20260502190004 | 60 | 10 | 9.0 | 12.0 | 0.00 | 0.00 | 0.00 | 61 | 1017.3 |
| 20260502185503 | 60 | 21 | 10.0 | 13.0 | 0.00 | 0.00 | 0.00 | 61 | 1016.3 |
| 20260502185003 | 61 | 26 | 9.0 | 13.0 | 0.00 | 0.00 | 0.00 | 60 | 1016.3 |
| 20260502184503 | 61 | 25 | 10.0 | 15.0 | 0.00 | 0.00 | 0.00 | 60 | 1016.3 |
| 20260502184003 | 61 | 19 | 11.0 | 15.0 | 0.00 | 0.00 | 0.00 | 60 | 1016.3 |
| 20260502183503 | 61 | 10 | 9.0 | 12.0 | 0.00 | 0.00 | 0.00 | 59 | 1016.3 |
| 20260502183214 | 61 | 11 | 8.0 | 11.0 | 0.00 | 0.00 | 0.00 | 59 | 1016.3 |
| 20260502182717 | 61 | 12 | 8.0 | 11.0 | 0.00 | 0.00 | 0.00 | 58 | 1016.3 |
| 20260502182003 | 62 | 12 | 7.0 | 10.0 | 0.00 | 0.00 | 0.00 | 58 | 1016.3 |
| 20260502181503 | 62 | 1 | 7.0 | 10.0 | 0.00 | 0.00 | 0.00 | 58 | 1016.3 |
| 20260502181216 | 62 | 357 | 8.0 | 11.0 | 0.00 | 0.00 | 0.00 | 57 | 1016.3 |
| 20260502180504 | 62 | 1 | 10.0 | 14.0 | 0.00 | 0.00 | 0.00 | 56 | 1016.3 |
| 20260502152004 | 70 | 10 | 13.0 | 21.0 | 0.00 | 0.00 | 0.00 | 41 | 1015.3 |
| 20260502151504 | 70 | 12 | 12.0 | 15.0 | 0.00 | 0.00 | 0.00 | 40 | 1015.3 |
| 20260502151213 | 70 | 18 | 12.0 | 15.0 | 0.00 | 0.00 | 0.00 | 40 | 1016.3 |
| 20260502150504 | 70 | 26 | 12.0 | 18.0 | 0.00 | 0.00 | 0.00 | 39 | 1016.3 |
| 20260502130503 | 71 | 34 | 12.0 | 18.0 | 0.00 | 0.00 | 0.00 | 37 | 1016.3 |
| 20260502130214 | 71 | 26 | 12.0 | 18.0 | 0.00 | 0.00 | 0.00 | 38 | 1016.3 |
| 20260502123503 | 71 | 19 | 10.0 | 13.0 | 0.00 | 0.00 | 0.00 | 36 | 1016.3 |
| 20260502123003 | 71 | 31 | 11.0 | 17.0 | 0.00 | 0.00 | 0.00 | 36 | 1016.3 |
| 20260502122717 | 71 | 20 | 12.0 | 17.0 | 0.00 | 0.00 | 0.00 | 35 | 1016.3 |
| 20260502122215 | 71 | 20 | 12.0 | 17.0 | 0.00 | 0.00 | 0.00 | 35 | 1016.3 |
| 20260502121503 | 71 | 17 | 14.0 | 27.0 | 0.00 | 0.00 | 0.00 | 35 | 1016.3 |
| 20260502121216 | 71 | 5 | 12.0 | 27.0 | 0.00 | 0.00 | 0.00 | 35 | 1016.3 |
| 20260502120503 | 71 | 10 | 11.0 | 17.0 | 0.00 | 0.00 | 0.00 | 35 | 1016.3 |
| 20260502120217 | 71 | 16 | 13.0 | 17.0 | 0.00 | 0.00 | 0.00 | 35 | 1016.3 |
| 20260502115715 | 71 | 7 | 12.0 | 17.0 | 0.00 | 0.00 | 0.00 | 35 | 1016.3 |
| 20260502115003 | 71 | 27 | 13.0 | 22.0 | 0.00 | 0.00 | 0.00 | 35 | 1016.3 |
| 20260502114003 | 71 | 329 | 11.0 | 24.0 | 0.00 | 0.00 | 0.00 | 34 | 1016.3 |
| 20260502113503 | 71 | 14 | 10.0 | 18.0 | 0.00 | 0.00 | 0.00 | 35 | 1016.3 |
| 20260502113004 | 71 | 37 | 11.0 | 18.0 | 0.00 | 0.00 | 0.00 | 34 | 1016.3 |
| 20260502112718 | 71 | 40 | 12.0 | 18.0 | 0.00 | 0.00 | 0.00 | 34 | 1016.3 |
| 20260502112216 | 71 | 17 | 12.0 | 19.0 | 0.00 | 0.00 | 0.00 | 33 | 1016.3 |
| 20260502111504 | 71 | 359 | 11.0 | 19.0 | 0.00 | 0.00 | 0.00 | 33 | 1016.3 |
| 20260502111004 | 71 | 9 | 10.0 | 17.0 | 0.00 | 0.00 | 0.00 | 33 | 1016.3 |
| 20260502110504 | 71 | 22 | 9.0 | 17.0 | 0.00 | 0.00 | 0.00 | 32 | 1017.3 |
| 20260502110004 | 71 | 23 | 9.0 | 14.0 | 0.00 | 0.00 | 0.00 | 31 | 1017.3 |
| 20260502105504 | 71 | 30 | 13.0 | 23.0 | 0.00 | 0.00 | 0.00 | 31 | 1017.3 |
| 20260502105004 | 70 | 29 | 16.0 | 23.0 | 0.00 | 0.00 | 0.00 | 31 | 1017.3 |
| 20260502104504 | 71 | 14 | 10.0 | 21.0 | 0.00 | 0.00 | 0.00 | 31 | 1017.3 |
| 20260502104214 | 71 | 9 | 7.0 | 14.0 | 0.00 | 0.00 | 0.00 | 32 | 1017.3 |
| 20260502103504 | 71 | 27 | 10.0 | 20.0 | 0.00 | 0.00 | 0.00 | 33 | 1017.3 |
| 20260502103215 | 70 | 23 | 11.0 | 20.0 | 0.00 | 0.00 | 0.00 | 33 | 1017.3 |
| 20260502102505 | 71 | 16 | 12.0 | 17.0 | 0.00 | 0.00 | 0.00 | 33 | 1017.3 |
| 20260502102004 | 70 | 16 | 12.0 | 17.0 | 0.00 | 0.00 | 0.00 | 33 | 1017.3 |
| 20260502101504 | 70 | 6 | 11.0 | 15.0 | 0.00 | 0.00 | 0.00 | 32 | 1017.3 |
| 20260502100215 | 70 | 25 | 8.0 | 12.0 | 0.00 | 0.00 | 0.00 | 32 | 1017.3 |
| 20260502091504 | 69 | 23 | 7.0 | 14.0 | 0.00 | 0.00 | 0.00 | 34 | 1017.3 |
| 20260502091215 | 69 | 33 | 7.0 | 12.0 | 0.00 | 0.00 | 0.00 | 33 | 1017.3 |
| 20260502090504 | 68 | 53 | 9.0 | 20.0 | 0.00 | 0.00 | 0.00 | 33 | 1017.3 |
| 20260502090216 | 68 | 49 | 9.0 | 20.0 | 0.00 | 0.00 | 0.00 | 34 | 1017.3 |
| 20260502071504 | 64 | 359 | 12.0 | 17.0 | 0.00 | 0.00 | 0.00 | 50 | 1017.3 |
| 20260502071004 | 64 | 359 | 11.0 | 17.0 | 0.00 | 0.00 | 0.00 | 50 | 1017.3 |
| 20260502070504 | 63 | 357 | 10.0 | 14.0 | 0.00 | 0.00 | 0.00 | 51 | 1017.3 |
| 20260502070004 | 63 | 359 | 10.0 | 14.0 | 0.00 | 0.00 | 0.00 | 51 | 1017.3 |
| 20260502065506 | 63 | 359 | 9.0 | 12.0 | 0.00 | 0.00 | 0.00 | 54 | 1017.3 |
| 20260502065004 | 63 | 5 | 8.0 | 12.0 | 0.00 | 0.00 | 0.00 | 55 | 1017.3 |
| 20260502064716 | 63 | 3 | 7.0 | 12.0 | 0.00 | 0.00 | 0.00 | 56 | 1017.3 |
| 20260502064004 | 62 | 9 | 7.0 | 12.0 | 0.00 | 0.00 | 0.00 | 59 | 1017.3 |
| 20260502063504 | 62 | 7 | 7.0 | 11.0 | 0.00 | 0.00 | 0.00 | 59 | 1017.3 |
| 20260502063004 | 61 | 6 | 8.0 | 10.0 | 0.00 | 0.00 | 0.00 | 60 | 1017.3 |
| 20260502062504 | 61 | 3 | 7.0 | 9.0 | 0.00 | 0.00 | 0.00 | 61 | 1017.3 |
| 20260502062004 | 61 | 354 | 6.0 | 9.0 | 0.00 | 0.00 | 0.00 | 62 | 1017.3 |
| 20260502061504 | 60 | 346 | 5.0 | 9.0 | 0.00 | 0.00 | 0.00 | 62 | 1017.3 |
| 20260502061217 | 60 | 335 | 6.0 | 9.0 | 0.00 | 0.00 | 0.00 | 62 | 1017.3 |
| 20260502060504 | 59 | 341 | 6.0 | 8.0 | 0.00 | 0.00 | 0.00 | 61 | 1017.3 |
| 20260502060004 | 59 | 352 | 5.0 | 9.0 | 0.00 | 0.00 | 0.00 | 63 | 1017.3 |
| 20260502055504 | 58 | 344 | 3.0 | 9.0 | 0.00 | 0.00 | 0.00 | 66 | 1017.3 |
| 20260502055004 | 58 | 308 | 2.0 | 4.0 | 0.00 | 0.00 | 0.00 | 66 | 1017.3 |
| 20260502054504 | 57 | 318 | 3.0 | 5.0 | 0.00 | 0.00 | 0.00 | 66 | 1017.3 |
| 20260502054004 | 57 | 328 | 5.0 | 9.0 | 0.00 | 0.00 | 0.00 | 65 | 1017.3 |
| 20260502053718 | 56 | 326 | 6.0 | 9.0 | 0.00 | 0.00 | 0.00 | 65 | 1017.3 |
| 20260502053004 | 55 | 330 | 5.0 | 7.0 | 0.00 | 0.00 | 0.00 | 67 | 1017.3 |
| 20260502052504 | 54 | 331 | 5.0 | 7.0 | 0.00 | 0.00 | 0.00 | 69 | 1017.3 |
| 20260502052217 | 54 | 329 | 5.0 | 7.0 | 0.00 | 0.00 | 0.00 | 69 | 1017.3 |
| 20260502051504 | 53 | 330 | 4.0 | 7.0 | 0.00 | 0.00 | 0.00 | 69 | 1017.3 |
| 20260502051004 | 53 | 355 | 4.0 | 6.0 | 0.00 | 0.00 | 0.00 | 69 | 1017.3 |
| 20260502050503 | 52 | 354 | 5.0 | 6.0 | 0.00 | 0.00 | 0.00 | 69 | 1017.3 |
| 20260502050004 | 52 | 346 | 4.0 | 6.0 | 0.00 | 0.00 | 0.00 | 69 | 1017.3 |
| 20260502045504 | 51 | 348 | 5.0 | 6.0 | 0.00 | 0.00 | 0.00 | 69 | 1017.3 |
| 20260502045003 | 51 | 350 | 5.0 | 6.0 | 0.00 | 0.00 | 0.00 | 69 | 1017.3 |
| 20260502044504 | 51 | 348 | 5.0 | 6.0 | 0.00 | 0.00 | 0.00 | 69 | 1017.3 |
| 20260502044004 | 51 | 356 | 5.0 | 6.0 | 0.00 | 0.00 | 0.00 | 69 | 1017.3 |
| 20260502043713 | 51 | 359 | 5.0 | 7.0 | 0.00 | 0.00 | 0.00 | 69 | 1017.3 |
| 20260502043003 | 51 | 359 | 5.0 | 7.0 | 0.00 | 0.00 | 0.00 | 69 | 1017.3 |
| 20260502042714 | 51 | 355 | 5.0 | 7.0 | 0.00 | 0.00 | 0.00 | 69 | 1017.3 |
| 20260502042003 | 52 | 356 | 6.0 | 9.0 | 0.00 | 0.00 | 0.00 | 70 | 1016.3 |
| 20260502041504 | 52 | 356 | 7.0 | 9.0 | 0.00 | 0.00 | 0.00 | 70 | 1016.3 |
| 20260502041003 | 51 | 12 | 7.0 | 9.0 | 0.00 | 0.00 | 0.00 | 70 | 1016.3 |
| 20260502040503 | 51 | 14 | 8.0 | 10.0 | 0.00 | 0.00 | 0.00 | 71 | 1016.3 |
| 20260502040004 | 51 | 1 | 7.0 | 10.0 | 0.00 | 0.00 | 0.00 | 71 | 1016.3 |
| 20260502035503 | 51 | 358 | 7.0 | 9.0 | 0.00 | 0.00 | 0.00 | 72 | 1016.3 |
| 20260502035003 | 50 | 354 | 6.0 | 9.0 | 0.00 | 0.00 | 0.00 | 71 | 1016.3 |
| 20260502034503 | 50 | 356 | 5.0 | 5.0 | 0.00 | 0.00 | 0.00 | 71 | 1016.3 |
| 20260502034003 | 50 | 356 | 5.0 | 5.0 | 0.00 | 0.00 | 0.00 | 70 | 1016.3 |
| 20260502033503 | 50 | 337 | 4.0 | 5.0 | 0.00 | 0.00 | 0.00 | 70 | 1016.3 |
| 20260502033005 | 50 | 333 | 3.0 | 4.0 | 0.00 | 0.00 | 0.00 | 70 | 1016.3 |
| 20260502032503 | 50 | 334 | 3.0 | 4.0 | 0.00 | 0.00 | 0.00 | 70 | 1016.3 |
| 20260502032213 | 50 | 332 | 3.0 | 4.0 | 0.00 | 0.00 | 0.00 | 70 | 1017.3 |
| 20260502031716 | 50 | 343 | 4.0 | 4.0 | 0.00 | 0.00 | 0.00 | 70 | 1017.3 |
| 20260502031004 | 51 | 338 | 4.0 | 5.0 | 0.00 | 0.00 | 0.00 | 70 | 1017.3 |
| 20260502030505 | 51 | 321 | 5.0 | 6.0 | 0.00 | 0.00 | 0.00 | 70 | 1017.3 |
| 20260502030004 | 52 | 316 | 4.0 | 6.0 | 0.00 | 0.00 | 0.00 | 69 | 1017.3 |
| 20260502025504 | 52 | 333 | 4.0 | 5.0 | 0.00 | 0.00 | 0.00 | 69 | 1017.3 |
| 20260502025004 | 52 | 338 | 4.0 | 5.0 | 0.00 | 0.00 | 0.00 | 69 | 1016.3 |
| 20260502024719 | 52 | 334 | 5.0 | 5.0 | 0.00 | 0.00 | 0.00 | 69 | 1016.3 |
| 20260502024004 | 53 | 339 | 5.0 | 6.0 | 0.00 | 0.00 | 0.00 | 69 | 1016.3 |
| 20260502023504 | 53 | 359 | 5.0 | 6.0 | 0.00 | 0.00 | 0.00 | 69 | 1017.3 |
| 20260502023004 | 53 | 9 | 5.0 | 6.0 | 0.00 | 0.00 | 0.00 | 69 | 1017.3 |
| 20260502022504 | 53 | 357 | 5.0 | 6.0 | 0.00 | 0.00 | 0.00 | 69 | 1017.3 |
| 20260502022004 | 53 | 11 | 6.0 | 9.0 | 0.00 | 0.00 | 0.00 | 70 | 1017.3 |
| 20260502021504 | 53 | 5 | 7.0 | 9.0 | 0.00 | 0.00 | 0.00 | 70 | 1017.3 |
| 20260502021214 | 53 | 2 | 7.0 | 9.0 | 0.00 | 0.00 | 0.00 | 70 | 1017.3 |